When you browse on this site, cookies collect data to enhance your experience and personalize the content and advertising you see.
Visit our Privacy Policy to learn more. By continuing to use the site, you agree to this use of cookies and data.
  • In Italy
  • List of Countries
  • For 7 days
  • Water Temperature
  • Satellite Maps
  • Weather Map
  • Weather Widgets
  • user-avatar
    Login

    Hourly Weather Korçe

    Today, 11 December, Tuesday

    Time Temperature Precipitation Wind Pressure Humidity
    00:00 +1°C° 0 mm 1 mps 661 mmHg 84%
    01:00 0°C° 0 mm 1 mps 661 mmHg 83%
    02:00 0°C° 0 mm 1 mps 661 mmHg 83%
    03:00 0°C° 0 mm 1 mps 661 mmHg 83%
    04:00 -2°C° 0 mm 2 mps 661 mmHg 82%
    05:00 -2°C° 0 mm 2 mps 661 mmHg 82%
    06:00 -2°C° 0 mm 2 mps 661 mmHg 82%
    07:00 -2°C° 0 mm 2 mps 661 mmHg 80%
    08:00 +1°C° 0 mm 1 mps 662 mmHg 75%
    09:00 +2°C° 0 mm 1 mps 662 mmHg 69%
    10:00 +3°C° 0 mm 1 mps 663 mmHg 63%
    11:00 +3°C° 0 mm 1 mps 663 mmHg 59%
    12:00 +3°C° 0 mm 2 mps 663 mmHg 55%
    13:00 +3°C° 0 mm 2 mps 663 mmHg 51%
    14:00 +2°C° 0 mm 2 mps 663 mmHg 55%
    15:00 +1°C° 0 mm 2 mps 663 mmHg 59%
    16:00 +1°C° 0 mm 2 mps 663 mmHg 63%
    17:00 -1°C° 0 mm 2 mps 663 mmHg 66%
    18:00 0°C° 0 mm 1 mps 663 mmHg 69%
    19:00 -1°C° 0 mm 1 mps 663 mmHg 72%
    20:00 -1°C° 0 mm 1 mps 664 mmHg 72%
    21:00 -1°C° 0 mm 1 mps 664 mmHg 72%
    22:00 -2°C° 0 mm 1 mps 664 mmHg 73%
    23:00 -2°C° 0 mm 1 mps 664 mmHg 71%

    Tomorrow, 12 December, Wednesday

    Time Temperature Precipitation Wind Pressure Humidity
    00:00 -2°C° 0 mm 1 mps 665 mmHg 70%
    01:00 -2°C° 0 mm 1 mps 665 mmHg 69%
    02:00 -2°C° 0 mm 1 mps 665 mmHg 68%
    03:00 -2°C° 0 mm 1 mps 665 mmHg 66%
    04:00 -2°C° 0 mm 1 mps 665 mmHg 65%
    05:00 -2°C° 0 mm 1 mps 665 mmHg 63%
    06:00 -2°C° 0 mm 1 mps 665 mmHg 61%
    07:00 -2°C° 0 mm 1 mps 665 mmHg 59%
    08:00 -1°C° 0 mm 1 mps 666 mmHg 50%
    09:00 +1°C° 0 mm 1 mps 667 mmHg 41%
    10:00 +2°C° 0 mm 1 mps 667 mmHg 32%
    11:00 +3°C° 0 mm 1 mps 667 mmHg 30%
    12:00 +3°C° 0 mm 1 mps 667 mmHg 28%
    13:00 +4°C° 0 mm 1 mps 667 mmHg 26%
    14:00 +3°C° 0 mm 1 mps 667 mmHg 30%
    15:00 +1°C° 0 mm 1 mps 667 mmHg 35%
    16:00 0°C° 0 mm 1 mps 666 mmHg 40%
    17:00 0°C° 0 mm 1 mps 666 mmHg 41%
    18:00 -1°C° 0 mm 1 mps 666 mmHg 41%
    19:00 -1°C° 0 mm 1 mps 666 mmHg 42%
    20:00 -1°C° 0 mm 1 mps 666 mmHg 42%
    21:00 -2°C° 0 mm 1 mps 666 mmHg 41%
    22:00 -2°C° 0 mm 1 mps 666 mmHg 40%
    23:00 -1°C° 0 mm 1 mps 666 mmHg 39%

    Day after tomorrow, 13 December, Thursday

    Time Temperature Precipitation Wind Pressure Humidity
    00:00 -1°C° 0 mm 1 mps 666 mmHg 39%
    01:00 -1°C° 0 mm 1 mps 666 mmHg 38%
    02:00 -1°C° 0 mm 1 mps 666 mmHg 38%
    03:00 -2°C° 0 mm 2 mps 666 mmHg 39%
    04:00 -2°C° 0 mm 2 mps 666 mmHg 39%
    05:00 -2°C° 0 mm 2 mps 665 mmHg 43%
    06:00 -2°C° 0 mm 2 mps 665 mmHg 47%
    07:00 -2°C° 0 mm 2 mps 665 mmHg 51%
    08:00 -2°C° 0.1 mm 2 mps 665 mmHg 54%
    09:00 -1°C° 0.1 mm 2 mps 665 mmHg 57%
    10:00 -1°C° 0.1 mm 3 mps 665 mmHg 60%
    11:00 -1°C° 0.5 mm 2 mps 664 mmHg 67%
    12:00 -2°C° 0.5 mm 2 mps 664 mmHg 74%
    13:00 -2°C° 0.5 mm 2 mps 663 mmHg 81%
    14:00 -2°C° 0.4 mm 2 mps 663 mmHg 83%
    15:00 -2°C° 0.4 mm 2 mps 663 mmHg 85%
    16:00 -2°C° 0.4 mm 2 mps 663 mmHg 86%
    17:00 -2°C° 0.2 mm 2 mps 663 mmHg 87%
    18:00 -2°C° 0.2 mm 2 mps 664 mmHg 87%
    19:00 -2°C° 0.2 mm 2 mps 664 mmHg 87%
    20:00 -2°C° 0 mm 2 mps 664 mmHg 87%
    21:00 -2°C° 0 mm 2 mps 664 mmHg 87%
    22:00 -2°C° 0 mm 2 mps 664 mmHg 87%
    23:00 -2°C° 0.1 mm 2 mps 664 mmHg 88%

    14 December, Friday

    Time Temperature Precipitation Wind Pressure Humidity
    00:00 -2°C° 0.1 mm 2 mps 664 mmHg 88%
    01:00 -2°C° 0.1 mm 2 mps 663 mmHg 89%
    02:00 -1°C° 0.5 mm 2 mps 663 mmHg 90%
    03:00 -1°C° 0.5 mm 2 mps 663 mmHg 90%
    04:00 -1°C° 0.5 mm 2 mps 663 mmHg 91%
    05:00 -1°C° 0.7 mm 2 mps 664 mmHg 91%
    06:00 -1°C° 0.7 mm 2 mps 664 mmHg 92%
    07:00 +1°C° 0.7 mm 2 mps 664 mmHg 92%
    08:00 +1°C° 0.6 mm 2 mps 664 mmHg 91%
    09:00 +2°C° 0.6 mm 2 mps 664 mmHg 91%
    10:00 +1°C° 0.6 mm 3 mps 664 mmHg 91%
    11:00 +2°C° 0.4 mm 3 mps 664 mmHg 91%
    12:00 +2°C° 0.4 mm 3 mps 664 mmHg 90%
    13:00 +3°C° 0.4 mm 3 mps 664 mmHg 90%
    14:00 +2°C° 0.2 mm 3 mps 664 mmHg 91%
    15:00 +2°C° 0.2 mm 3 mps 664 mmHg 92%
    16:00 +2°C° 0.2 mm 3 mps 664 mmHg 93%
    17:00 +2°C° 0 mm 3 mps 664 mmHg 93%
    18:00 +1°C° 0 mm 3 mps 664 mmHg 92%
    19:00 +1°C° 0 mm 3 mps 664 mmHg 92%
    20:00 +1°C° 0 mm 3 mps 664 mmHg 91%
    21:00 +1°C° 0 mm 3 mps 664 mmHg 91%
    22:00 +1°C° 0 mm 3 mps 664 mmHg 90%
    23:00 +1°C° 0 mm 3 mps 663 mmHg 90%

    15 December, Saturday

    Time Temperature Precipitation Wind Pressure Humidity
    00:00 +1°C° 0 mm 3 mps 663 mmHg 90%
    01:00 +1°C° 0 mm 3 mps 663 mmHg 90%
    02:00 +1°C° 0.3 mm 3 mps 662 mmHg 91%
    03:00 +1°C° 0.3 mm 3 mps 662 mmHg 91%
    04:00 +1°C° 0.3 mm 3 mps 662 mmHg 91%
    05:00 +1°C° 0.6 mm 3 mps 662 mmHg 92%
    06:00 +1°C° 0.6 mm 3 mps 661 mmHg 92%
    07:00 +1°C° 0.6 mm 3 mps 661 mmHg 92%
    08:00 +2°C° 0.3 mm 3 mps 662 mmHg 91%
    09:00 +2°C° 0.3 mm 3 mps 662 mmHg 91%
    10:00 +3°C° 0.3 mm 3 mps 662 mmHg 90%
    11:00 +4°C° 0.1 mm 3 mps 662 mmHg 88%
    12:00 +5°C° 0.1 mm 2 mps 661 mmHg 85%
    13:00 +6°C° 0.1 mm 2 mps 661 mmHg 83%
    14:00 +5°C° 0.1 mm 2 mps 661 mmHg 85%
    15:00 +5°C° 0.1 mm 2 mps 661 mmHg 87%
    16:00 +4°C° 0.1 mm 2 mps 660 mmHg 89%
    17:00 +4°C° 0.1 mm 2 mps 660 mmHg 89%
    18:00 +3°C° 0.1 mm 2 mps 660 mmHg 90%
    19:00 +3°C° 0.1 mm 2 mps 661 mmHg 90%
    20:00 +3°C° 0.2 mm 2 mps 661 mmHg 90%
    21:00 +3°C° 0.2 mm 2 mps 661 mmHg 90%
    22:00 +3°C° 0.2 mm 2 mps 661 mmHg 90%
    23:00 +3°C° 0.2 mm 2 mps 661 mmHg 91%

    16 December, Sunday

    Time Temperature Precipitation Wind Pressure Humidity
    00:00 +2°C° 0.2 mm 2 mps 661 mmHg 91%
    01:00 +2°C° 0.2 mm 2 mps 661 mmHg 91%
    02:00 +2°C° 0.1 mm 2 mps 661 mmHg 91%
    03:00 +2°C° 0.1 mm 2 mps 661 mmHg 91%
    04:00 +2°C° 0.1 mm 2 mps 661 mmHg 91%
    05:00 +2°C° 0.1 mm 2 mps 661 mmHg 91%
    06:00 +2°C° 0.1 mm 2 mps 662 mmHg 90%
    07:00 +2°C° 0.1 mm 2 mps 662 mmHg 90%
    08:00 +3°C° 0.2 mm 2 mps 663 mmHg 88%
    09:00 +3°C° 0.2 mm 3 mps 664 mmHg 86%
    10:00 +4°C° 0.2 mm 3 mps 664 mmHg 83%
    11:00 +4°C° 0.2 mm 3 mps 664 mmHg 82%
    12:00 +4°C° 0.2 mm 3 mps 664 mmHg 81%
    13:00 +4°C° 0.2 mm 3 mps 665 mmHg 79%
    14:00 +4°C° 0.1 mm 3 mps 665 mmHg 81%
    15:00 +3°C° 0.1 mm 3 mps 665 mmHg 82%
    16:00 +4°C° 0.1 mm 2 mps 666 mmHg 84%
    17:00 +3°C° 0.1 mm 2 mps 666 mmHg 85%
    18:00 +2°C° 0.1 mm 2 mps 666 mmHg 86%
    19:00 +2°C° 0.1 mm 2 mps 667 mmHg 87%
    20:00 +2°C° 0 mm 2 mps 667 mmHg 87%
    21:00 +1°C° 0 mm 2 mps 667 mmHg 87%
    22:00 +1°C° 0 mm 2 mps 668 mmHg 87%
    23:00 +1°C° 0 mm 2 mps 668 mmHg 87%
    Show more